Weather History for Blue Canyon, CA

Change the Weather History Date:

Thursday, November 8, 2012

  Actual Average Record
Temperature  
Mean Temperature 38 °F -  
Max Temperature 48 °F 50 °F 71 °F (1978)
Min Temperature 27 °F 36 °F 25 °F (1982)
Degree Days  
Heating Degree Days 28    
Moisture  
Dew Point 28 °F    
Average Humidity 88    
Maximum Humidity 100    
Minimum Humidity 26    
Precipitation  
Precipitation 0.47 in - - ()
Sea Level Pressure  
Sea Level Pressure 29.79 in    
Wind  
Wind Speed 14 mph (South)    
Max Wind Speed 22 mph    
Max Gust Speed 30 mph    
Visibility 4 miles    
Events Fog , Rain , Snow    
Averages and records for this station are not official NWS values.
T = Trace of Precipitation, MM = Missing Value Source: NWS Daily Summary

Daily Weather History Graph

Daily Weather History Graph

Search for Another Location

Airport:

Trip Planner

Search our weather history database for the weather conditions in past years. The results will help you decide how hot, cold, wet, or windy it might be!

Date:

Astronomy

Nov. 08, 2012 Rise Set
Actual Time 6:39 AM PST 4:53 PM PST
Civil Twilight 6:10 AM PST 5:21 PM PST
Nautical Twilight 5:38 AM PST 5:53 PM PST
Astronomical Twilight 5:07 AM PST 6:25 PM PST
Moon 12:41 AM PST (11/8) 1:35 PM PST (11/8)
Length of Visible Light 11h 11m
Length of Day
10h 14m
Waning Crescent, 32% of the Moon is Illuminated
Nov 8
Waning Crescent
Nov 13
New
Nov 20
First Quarter
Nov 28
Full
Dec 6
Last Quarter

Hourly Weather History & Observations

Time (PST) Temp. Windchill Dew Point Humidity Pressure Visibility Wind Dir Wind Speed Gust Speed Precip Events Conditions
12:52 AM 48.9 °F - 33.1 °F 54% 29.78 in 10.0 mi South 15.0 mph - N/A   Overcast
1:52 AM 46.0 °F 39.3 °F 32.0 °F 58% 29.77 in 10.0 mi South 16.1 mph 21.9 mph N/A   Overcast
2:52 AM 46.0 °F 39.9 °F 19.9 °F 35% 29.74 in 10.0 mi SSE 13.8 mph 18.4 mph N/A   Overcast
3:52 AM 45.0 °F 38.9 °F 12.0 °F 26% 29.74 in 10.0 mi SSE 12.7 mph 20.7 mph N/A   Overcast
4:52 AM 43.0 °F 36.8 °F 10.9 °F 27% 29.74 in 10.0 mi SSE 11.5 mph 24.2 mph N/A   Overcast
5:18 AM 42.8 °F 35.4 °F 10.4 °F 27% 29.85 in 10.0 mi South 15.0 mph 21.9 mph N/A   Overcast
5:52 AM 41.0 °F 33.5 °F 17.1 °F 38% 29.73 in 10.0 mi SSE 13.8 mph 20.7 mph N/A   Overcast
6:25 AM 39.2 °F 31.6 °F 26.6 °F 61% 29.83 in 10.0 mi SSE 12.7 mph 20.7 mph N/A   Overcast
6:41 AM 37.4 °F 29.3 °F 28.4 °F 70% 29.82 in 10.0 mi SSE 12.7 mph 20.7 mph N/A   Mostly Cloudy
6:52 AM 37.9 °F 27.3 °F 30.0 °F 73% 29.73 in 10.0 mi South 21.9 mph 28.8 mph N/A   Mostly Cloudy
7:02 AM 37.4 °F 27.5 °F 30.2 °F 75% 29.82 in 10.0 mi SSE 18.4 mph 29.9 mph N/A   Scattered Clouds
7:43 AM 35.6 °F 24.8 °F 28.4 °F 75% 29.82 in 10.0 mi South 19.6 mph 25.3 mph N/A   Mostly Cloudy
7:52 AM 36.0 °F 27.5 °F 30.0 °F 79% 29.75 in 10.0 mi SSE 12.7 mph 25.3 mph N/A   Mostly Cloudy
8:23 AM 33.8 °F 23.5 °F 30.2 °F 87% 29.84 in 10.0 mi South 16.1 mph 25.3 mph N/A   Overcast
8:36 AM 33.8 °F 23.9 °F 30.2 °F 87% 29.85 in 10.0 mi South 15.0 mph 20.7 mph N/A   Overcast
8:46 AM 33.8 °F 23.9 °F 30.2 °F 87% 29.85 in 1.0 mi South 15.0 mph 21.9 mph N/A   Overcast
8:48 AM 33.8 °F 23.9 °F 30.2 °F 87% 29.85 in 0.2 mi South 15.0 mph 23.0 mph N/A Fog Fog
8:52 AM 32.0 °F 21.6 °F 32.0 °F 100% 29.79 in 0.2 mi South 15.0 mph 24.2 mph N/A Fog Fog
9:37 AM 32.0 °F 20.1 °F 30.2 °F 93% 29.85 in 0.2 mi South 19.6 mph 26.5 mph 0.00 in Fog , Rain Light Freezing Rain
9:52 AM 32.0 °F 20.5 °F 30.9 °F 96% 29.80 in 0.2 mi South 18.4 mph 29.9 mph 0.00 in Fog , Rain Light Freezing Rain
10:23 AM 30.2 °F 18.5 °F 30.2 °F 100% 29.86 in 1.0 mi South 17.3 mph 29.9 mph 0.00 in Rain Light Freezing Rain
10:25 AM 30.2 °F 18.9 °F 30.2 °F 100% 29.87 in 5.0 mi SSE 16.1 mph 29.9 mph 0.00 in Rain Light Freezing Rain
10:32 AM 30.2 °F 17.8 °F 28.4 °F 93% 29.87 in 10.0 mi South 19.6 mph 29.9 mph 0.00 in   Overcast
10:52 AM 30.0 °F 18.7 °F 28.9 °F 96% 29.81 in 10.0 mi South 16.1 mph 26.5 mph 0.00 in   Overcast
11:11 AM 30.2 °F 17.4 °F 28.4 °F 93% 29.86 in 10.0 mi South 20.7 mph 29.9 mph N/A   Overcast
11:15 AM 30.2 °F 18.9 °F 28.4 °F 93% 29.86 in 10.0 mi SSE 16.1 mph 29.9 mph N/A   Overcast
11:35 AM 30.2 °F 18.5 °F 28.4 °F 93% 29.86 in 10.0 mi South 17.3 mph 25.3 mph N/A   Overcast
11:52 AM 30.9 °F 20.2 °F 28.0 °F 89% 29.80 in 10.0 mi South 15.0 mph 25.3 mph N/A   Overcast
12:22 PM 32.0 °F 20.8 °F 28.4 °F 87% 29.84 in 10.0 mi SSE 17.3 mph 25.3 mph N/A   Overcast
12:32 PM 32.0 °F 21.2 °F 28.4 °F 87% 29.83 in 10.0 mi South 16.1 mph 27.6 mph N/A   Overcast
12:52 PM 30.9 °F 21.2 °F 28.0 °F 89% 29.77 in 3.0 mi SSE 12.7 mph 24.2 mph 0.00 in Snow Light Snow
12:57 PM 30.2 °F 18.1 °F 28.4 °F 93% 29.82 in 1.8 mi South 18.4 mph 25.3 mph 0.00 in Snow Light Snow
1:11 PM 30.2 °F 19.3 °F 28.4 °F 93% 29.81 in 2.0 mi South 15.0 mph 21.9 mph 0.00 in Snow Light Snow
1:17 PM 30.2 °F 18.9 °F 28.4 °F 93% 29.80 in 1.2 mi South 16.1 mph 21.9 mph 0.01 in Snow Light Snow
1:40 PM 30.2 °F 19.3 °F 28.4 °F 93% 29.80 in 1.2 mi South 15.0 mph - 0.03 in Snow Light Snow
1:52 PM 30.9 °F 21.2 °F 30.0 °F 96% 29.75 in 1.0 mi South 12.7 mph - 0.04 in Snow Light Snow
1:59 PM 30.2 °F 19.3 °F 30.2 °F 100% 29.79 in 0.5 mi South 15.0 mph 19.6 mph 0.01 in Fog , Snow Light Snow
2:22 PM 30.2 °F 20.8 °F 30.2 °F 100% 29.78 in 0.2 mi South 11.5 mph 25.3 mph 0.03 in Fog , Snow Snow
2:52 PM 30.0 °F 21.7 °F 30.0 °F 100% 29.75 in 0.2 mi South 9.2 mph 18.4 mph 0.08 in Fog , Snow Heavy Snow
3:52 PM 30.0 °F 22.4 °F 28.9 °F 96% 29.75 in 0.2 mi SSW 8.1 mph 17.3 mph 0.18 in Fog , Snow Heavy Snow
4:14 PM 28.4 °F 18.5 °F 28.4 °F 100% 29.78 in 0.8 mi SSW 11.5 mph - 0.04 in Snow Light Snow
4:26 PM 28.4 °F 19.7 °F 28.4 °F 100% 29.78 in 0.2 mi South 9.2 mph 18.4 mph 0.04 in Fog , Snow Light Snow
4:52 PM 30.0 °F 21.7 °F 28.9 °F 96% 29.75 in 0.2 mi SSW 9.2 mph 20.7 mph 0.04 in Fog , Rain Light Freezing Rain
5:09 PM 30.2 °F 24.3 °F 28.4 °F 93% 29.78 in 0.5 mi Variable 5.8 mph 16.1 mph 0.00 in Fog , Rain Light Freezing Rain
5:16 PM 30.2 °F 21.3 °F 30.2 °F 100% 29.78 in 0.5 mi SSW 10.4 mph - 0.00 in Fog , Snow Light Snow
5:28 PM 30.2 °F 22.6 °F 28.4 °F 93% 29.78 in 0.2 mi SSW 8.1 mph 18.4 mph 0.00 in Fog , Snow Light Snow
5:52 PM 30.0 °F 22.4 °F 28.9 °F 96% 29.78 in 0.2 mi SSW 8.1 mph 17.3 mph 0.01 in Fog Light Freezing Fog
6:01 PM 30.2 °F 23.4 °F 28.4 °F 93% 29.79 in 0.5 mi SSW 6.9 mph - N/A Fog Light Freezing Fog
6:31 PM 30.2 °F 21.9 °F 28.4 °F 93% 29.78 in 1.0 mi SSW 9.2 mph - 0.00 in Snow Light Snow
6:41 PM 30.2 °F 20.8 °F 28.4 °F 93% 29.77 in 0.5 mi SW 11.5 mph 21.9 mph 0.01 in Fog , Snow Light Snow
6:48 PM 30.2 °F 21.9 °F 28.4 °F 93% 29.78 in 0.2 mi SSW 9.2 mph 21.9 mph 0.01 in Fog Light Freezing Fog
6:52 PM 30.0 °F 22.4 °F 28.9 °F 96% 29.78 in 0.2 mi SSW 8.1 mph 16.1 mph 0.01 in Fog Light Freezing Fog
7:30 PM 30.2 °F 19.8 °F 28.4 °F 93% 29.77 in 1.0 mi SSW 13.8 mph 23.0 mph 0.00 in Snow Light Snow
7:40 PM 30.2 °F 20.2 °F 28.4 °F 93% 29.77 in 0.5 mi SSW 12.7 mph 18.4 mph 0.00 in Fog Light Freezing Fog
7:52 PM 28.9 °F 18.6 °F 28.9 °F 100% 29.78 in 0.5 mi SSW 12.7 mph 18.4 mph 0.00 in Fog , Snow Light Snow
7:58 PM 28.4 °F 19.1 °F 28.4 °F 100% 29.77 in 1.5 mi SW 10.4 mph 18.4 mph 0.00 in Snow Light Snow
8:01 PM 28.4 °F 19.1 °F 28.4 °F 100% 29.77 in 3.0 mi SSW 10.4 mph 18.4 mph 0.00 in   Overcast
8:09 PM 28.4 °F 19.1 °F 28.4 °F 100% 29.77 in 1.8 mi SW 10.4 mph 17.3 mph 0.00 in Snow Light Snow
8:19 PM 28.4 °F 21.2 °F 28.4 °F 100% 29.78 in 3.0 mi Variable 6.9 mph 19.6 mph 0.00 in   Overcast
8:52 PM 28.9 °F 21.9 °F 28.0 °F 96% 29.81 in 4.0 mi Variable 6.9 mph - 0.01 in Snow Light Snow
9:02 PM 28.4 °F 19.7 °F 28.4 °F 100% 29.78 in 1.8 mi SSW 9.2 mph - 0.00 in   Overcast
9:10 PM 28.4 °F 23.3 °F 28.4 °F 100% 29.77 in 2.5 mi SW 4.6 mph - 0.00 in   Overcast
9:13 PM 28.4 °F 22.2 °F 28.4 °F 100% 29.77 in 1.2 mi Variable 5.8 mph - 0.00 in Snow Light Snow
9:19 PM 28.4 °F 23.3 °F 28.4 °F 100% 29.77 in 0.2 mi SW 4.6 mph - 0.01 in Fog , Snow Light Snow
9:31 PM 28.4 °F 17.5 °F 26.6 °F 93% 29.78 in 1.0 mi South 13.8 mph 19.6 mph 0.04 in Snow Light Snow
9:40 PM 28.4 °F 17.5 °F 26.6 °F 93% 29.77 in 2.0 mi South 13.8 mph 20.7 mph 0.05 in Snow Light Snow
9:45 PM 28.4 °F 18.5 °F 28.4 °F 100% 29.78 in 1.2 mi South 11.5 mph - 0.05 in Snow Light Snow
9:52 PM 28.9 °F 17.7 °F 28.0 °F 96% 29.82 in 0.5 mi South 15.0 mph 18.4 mph 0.05 in Fog , Snow Light Snow
10:03 PM 28.4 °F 18.5 °F 26.6 °F 93% 29.79 in 1.5 mi SSW 11.5 mph 19.6 mph 0.01 in   Overcast
10:05 PM 28.4 °F 19.7 °F 26.6 °F 93% 29.79 in 3.0 mi SSW 9.2 mph 18.4 mph 0.01 in   Overcast
10:11 PM 28.4 °F 20.4 °F 28.4 °F 100% 29.78 in 1.2 mi South 8.1 mph - 0.01 in   Overcast
10:19 PM 28.4 °F 19.1 °F 26.6 °F 93% 29.79 in 0.8 mi South 10.4 mph - 0.01 in   Overcast
10:22 PM 28.4 °F 19.1 °F 26.6 °F 93% 29.78 in 1.5 mi South 10.4 mph - 0.01 in   Overcast
10:24 PM 28.4 °F 19.7 °F 26.6 °F 93% 29.78 in 3.0 mi South 9.2 mph - 0.01 in Snow Light Snow
10:29 PM 28.4 °F 19.7 °F 26.6 °F 93% 29.78 in 1.8 mi South 9.2 mph - 0.01 in Snow Light Snow
10:52 PM 27.0 °F 19.5 °F 26.1 °F 96% 29.84 in 1.5 mi Variable 6.9 mph - 0.03 in Snow Light Snow
11:03 PM 28.4 °F 19.1 °F 26.6 °F 93% 29.78 in 0.8 mi South 10.4 mph - 0.00 in Snow Light Snow
11:13 PM 28.4 °F 17.5 °F 26.6 °F 93% 29.78 in 0.2 mi South 13.8 mph - 0.01 in Fog , Snow Light Snow
11:43 PM 28.4 °F 16.6 °F 26.6 °F 93% 29.79 in 0.8 mi South 16.1 mph 20.7 mph 0.02 in Snow Light Snow
11:52 PM 28.0 °F 17.5 °F 27.0 °F 96% 29.83 in 0.2 mi South 12.7 mph - 0.02 in Fog , Snow Light Snow